STARLINK-34764, 65098

Orbit data source: Space-Track

STARLINK-34764, 65098 is a payload satellite owned by SpaceX/Seattle (US) in LEO that was launched on Mon, 04 Aug 2025 UTC via an FALCON 9 launch vehicle from the Air Force Eastern Test Range (AFETR). Payload-class satellites include a variety of spacecraft equipped with specific instruments for various scientific and technological missions. These include communications satellites like Starlink; space stations such as the ISS; scientific satellites like the Hubble; Earth observation satellites from companies like Planet Labs, Umbra, and HawkEye 360; GPS; miniature CubeSats for education and research; and military/defense satellites.

Loading next visibility...
Identifier
65098, 2025-167W
Orbit
LEO
Country
Flag of USUS
Related business
Manufacturer
SpaceX/Seattle
Mission
Operational Commercial Communications
Bus & Motor
STARLINK V2MO, Unknown motor
Mass
575 kg wet, ~530 kg dry
Launch date (UTC)
2025-08-04 (9 months ago)
Launch vehicle
FALCON 9
Launch site
Air Force Eastern Test Range (AFETR)
Object type
Payload
Rocket body
Debris
Shape & HBR
Box + 2 Pan, 17.7 m
Radar Cross Section
36.964 m², Large (>1 m²)

Expand to show TLE details & history
Last TLE update: 10 hours ago

TLE from 10 hours ago
0 STARLINK-34764
1 65098U 25167W   26127.27768810  .00018043  00000-0  54402-3 0  9990
2 65098  53.1603 114.2567 0001216 108.1274 251.9861 15.34390774 42457
Epoch: 2026-05-07T06:39Z
TLE epoch observation values (Epoch: 2026-05-07T06:39:52.251Z)
Latitude
-0.00005°
Longitude
149.16282°
Altitude
463.889 km
Speed
7.636 km/s
True Right ascension
07h 37m 01s
True Declination
0° 00' 00"
Sunlit
Object was in daylight at epoch
Visualization orbit readout
Latitude
Unknown
Longitude
Unknown
Altitude
Unknown
Speed
Unknown
Apparent Right ascension
Unknown
Apparent Declination
Unknown
Sunlit
N/A
Visualization observer readout
Local Sidereal Time
00:47:02
Azimuth
Unknown
Elevation
Unknown
Doppler factor
Unknown
Orbital elements
Apogee altitude
463.819 km
Perigee altitude
462.156 km
Semi-major axis
6,841.124 km
Eccentricity
0.00012
Inclination
53.1603°
RAAN
114.2567°
Arg. of periapsis
108.1274°
True anomaly
251.97285°
Mean anomaly
251.9861°
Eccentric anomaly
251.97947°
Mean motion
3.83576 °/min
Orbital period
93.85 mins
BSTAR
0.00054402
Loading maneuver chart data...
Computing Atmospheric mass density...
Loading historical data...
Loading historical data...
Loading historical data...
Loading historical data...
Loading historical data...
Loading historical data...
Loading historical data...

Documentation

Showing up to 5 results
|